This is the latest recevied weather packets stored in our database for station/object KJ7HSW. If no packets are shown the sender has not sent any weather packets the latest 10 day(s).
| Time | Temp. | Humidity | Pressure | Rain* | Wind** | Luminosity | Snow |
|---|---|---|---|---|---|---|---|
| 1777846118 | 29.44° C | 29% | 1011.4 hPa | 0 mm | - | 720 W/m² | - |
| 1777845816 | 29.44° C | 27% | 1011.4 hPa | 0 mm | - | 729 W/m² | - |
| 1777845512 | 28.89° C | 28% | 1011.5 hPa | 0 mm | - | 739 W/m² | - |
| 1777845209 | 28.89° C | 31% | 1011.7 hPa | 0 mm | - | 746 W/m² | - |
| 1777844907 | 28.89° C | 28% | 1011.5 hPa | 0 mm | - | 748 W/m² | - |
| 1777844604 | 28.89° C | 28% | 1011.6 hPa | 0 mm | - | 754 W/m² | - |
| 1777844302 | 28.33° C | 29% | 1011.8 hPa | 0 mm | - | 754 W/m² | - |
| 1777843999 | 28.33° C | 30% | 1011.7 hPa | 0 mm | - | 755 W/m² | - |
| 1777843696 | 28.89° C | 31% | 1011.8 hPa | 0 mm | - | 769 W/m² | - |
| 1777843394 | 28.33° C | 28% | 1011.9 hPa | 0 mm | - | 775 W/m² | - |
| 1777843091 | 28.33° C | 30% | 1011.8 hPa | 0 mm | - | 777 W/m² | - |
| 1777842788 | 27.78° C | 29% | 1011.9 hPa | 0 mm | - | 787 W/m² | - |
| 1777842487 | 28.33° C | 28% | 1011.9 hPa | 0 mm | - | 791 W/m² | - |
| 1777842185 | 27.78° C | 29% | 1011.9 hPa | 0 mm | - | 772 W/m² | - |
| 1777841880 | 27.22° C | 30% | 1012.1 hPa | 0 mm | - | 751 W/m² | - |
| 1777841577 | 27.22° C | 30% | 1012.4 hPa | 0 mm | - | 808 W/m² | - |
| 1777841273 | 27.22° C | 29% | 1012.4 hPa | 0 mm | - | 801 W/m² | - |
| 1777840971 | 27.78° C | 29% | 1012.4 hPa | 0 mm | - | 811 W/m² | - |
| 1777840669 | 27.78° C | 31% | 1012.6 hPa | 0 mm | - | 798 W/m² | - |
| 1777840366 | 27.22° C | 30% | 1012.7 hPa | 0 mm | - | 806 W/m² | - |
| 1777840063 | 27.22° C | 30% | 1012.6 hPa | 0 mm | - | 698 W/m² | - |
| 1777839761 | 27.22° C | 30% | 1012.7 hPa | 0 mm | - | 826 W/m² | - |
| 1777839458 | 26.67° C | 32% | 1012.7 hPa | 0 mm | - | 757 W/m² | - |
| 1777839155 | 26.67° C | 33% | 1012.8 hPa | 0 mm | - | 848 W/m² | - |
| 1777838852 | 26.67° C | 31% | 1012.9 hPa | 0 mm | - | 839 W/m² | - |
* Rain latest hour (hover to see other rain measurements)
** Current wind speed in m/s (hover to see current wind gust speed)